{"data":{"norad_id":48438,"epoch":"2026-05-24T12:37:01.588512Z","epoch_age_seconds":112457,"freshness":"FRESH","line1":"1 48438U 21040L   26144.52571283  .00005972  00000+0  20400-3 0  9995","line2":"2 48438  53.1576 185.4982 0001118  85.2810 274.8319 15.31709090278295","mean_motion":15.3170909,"eccentricity":0.0001118,"inclination_deg":53.1576,"raan_deg":185.4982,"arg_perigee_deg":85.281,"mean_anomaly_deg":274.8319,"bstar":0.000204,"rev_number":27829,"period_min":94.012630035381,"perigee_km":469.947197124,"apogee_km":471.47859996132,"semimajor_km":6848.8498985427,"source":"CELESTRAK","updated_at":"2026-05-25T13:38:16.715517Z"}}